User: anonymous   Login
Location: Unspecified
(0.0000°N, 0.0000°E)
Time: 21:51:01
(UTC+02:00)
Language:

YAOGAN 3 - Orbit

View from above orbital plane
View from above orbital plane
View from above satellite
View from above satellite

Ground track
Ground track

The orbit data is extracted from the following two-line orbital elements,

1 32289U 07055A   17233.37943487  .00000355  00000-0  52844-4 0  9992
2 32289  98.0013 235.1783 0001784  90.3119 269.8303 14.80830469528389
Epoch (UTC): 21 August 2017 09:06:23
Eccentricity: 0.0001784
inclination: 98.0013°
perigee height: 625 km
apogee height: 628 km
right ascension of ascending node: 235.1783°
argument of perigee: 90.3119°
revolutions per day: 14.80830469
mean anomaly at epoch: 269.8303°
orbit number at epoch: 52838

The dashed part of the orbit path shows where the satellite is in the earth's shadow,  

DLR